This demonstration page uses our WeatherBlox Daily Observations layout. Learn more.

Left ArrowRight Arrow

47.50024, -111.30081

Hourly Observations for October 7, 2019

Temp ( °F °C ) Dew Point ( °F °C ) Humidity (%) Winds ( mph kmh ) Pressure ( in mb ) Visibility ( mi km ) Precip ( " mm )
12:53 am 00:53 Clear 47 8.3 22 -5.6 37 37 SSW 17 28 30.08 1019 10 16 0.00 0.00
1:53 am 01:53 Clear 47 8.3 20 -6.7 34 34 SW 17 28 30.06 1018 10 16 0.00 0.00
2:53 am 02:53 Clear 50 10 17 -8.3 27 27 SW 16 26 30.02 1017 10 16 0.00 0.00
3:53 am 03:53 Clear 51 10.6 17 -8.3 26 26 SW 18 30 30.01 1016 10 16 0.00 0.00
4:53 am 04:53 Clear 53 11.7 16 -8.9 23 23 SW 22 35 29.98 1015 10 16 0.00 0.00
5:53 am 05:53 Cloudy 54 12.2 16 -8.9 22 22 SW 18 30 29.98 1015 10 16 0.00 0.00
6:53 am 06:53 Mostly Clear 54 12.2 17 -8.3 23 23 SW 20 31 29.98 1015 10 16 0.00 0.00
7:53 am 07:53 Cloudy 54 12.2 19 -7.2 25 25 SW 20 31 29.96 1015 10 16 0.00 0.00
8:53 am 08:53 Cloudy 54 12.2 19 -7.2 25 25 SW 24 39 29.93 1014 10 16 0.00 0.00
9:53 am 09:53 Cloudy 54 12.2 19 -7.2 25 25 SW 28 44 29.91 1013 10 16 0.00 0.00
10:53 am 10:53 Mostly Sunny 55 12.8 18 -7.8 23 23 SW 30 48 29.90 1013 10 16 0.00 0.00
11:53 am 11:53 Sunny 55 12.8 19 -7.2 24 24 SW 26 43 29.88 1012 10 16 0.00 0.00
12:53 pm 12:53 Sunny 56 13.3 20 -6.7 24 24 SW 28 44 29.85 1011 10 16 0.00 0.00
1:53 pm 13:53 Sunny 58 14.4 20 -6.7 23 23 SW 26 43 29.82 1010 10 16 0.00 0.00
2:53 pm 14:53 Sunny 62 16.7 23 -5 22 22 SSW 22 35 29.77 1008 10 16 0.00 0.00
3:53 pm 15:53 Sunny 69 20.6 28 -2.2 22 22 SW 33 54 29.71 1006 10 16 0.00 0.00
4:53 pm 16:53 Sunny 68 20 30 -1.1 24 24 SW 33 54 29.69 1005 10 16 0.00 0.00
5:53 pm 17:53 Sunny 64 17.8 30 -1.1 28 28 SW 28 44 29.70 1006 10 16 0.00 0.00
6:53 pm 18:53 Sunny 61 16.1 32 0 34 34 SW 18 30 29.70 1006 10 16 0.00 0.00
7:53 pm 19:53 Clear 59 15 32 0 36 36 SW 20 31 29.68 1005 10 16 0.00 0.00
8:53 pm 20:53 Clear 59 15 32 0 36 36 SW 23 37 29.67 1005 10 16 0.00 0.00
9:53 pm 21:53 Clear 59 15 30 -1.1 33 33 SW 20 31 29.66 1004 10 16 0.00 0.00
10:53 pm 22:53 Clear 58 14.4 31 -0.6 36 36 SW 20 31 29.64 1004 10 16 0.00 0.00
11:53 pm 23:53 Clear 59 15 31 -0.6 35 35 SW 23 37 29.62 1003 10 16 0.00 0.00

Powered by AerisWeather